[Iaude] MPEC V94: 2016 VV3 [a=2.95,e=0.62,i=4.7,H=19.7]

mpec at si.edu mpec at si.edu
Thu Nov 10 13:09:39 EST 2016


M.P.E.C. 2016-V94                                Issued 2016 Nov. 10, 18:05 UT
 
     The Minor Planet Electronic Circulars contain information on unusual
         minor planets and routine data on comets.  They are published
    on behalf of Division F of the International Astronomical Union by the
          Minor Planet Center, Smithsonian Astrophysical Observatory,
                          Cambridge, MA 02138, U.S.A.

             Prepared using the Tamkin Foundation Computer Network

                              MPC at CFA.HARVARD.EDU
            URL http://www.minorplanetcenter.net/    ISSN 1523-6714


                                   2016 VV3
 
Observations:
     K16V03V  C2016 11 06.49667 08 54 51.30 +17 12 35.5          20.8 VqEV094G96
     K16V03V  C2016 11 06.50103 08 54 52.64 +17 12 32.4          20.9 VqEV094G96
     K16V03V  C2016 11 06.50535 08 54 53.89 +17 12 29.4          20.9 VqEV094G96
     K16V03V  C2016 11 06.50971 08 54 55.20 +17 12 27.0          20.8 VqEV094G96
     K16V03V* C2016 11 06.51742 08 54 57.46 +17 12 21.5          20.8 VqEV094G96
     K16V03V  C2016 11 06.51923 08 54 57.98 +17 12 20.4          21.1 VqEV094G96
     K16V03V  C2016 11 06.52153 08 54 58.69 +17 12 18.4          21.0 VqEV094G96
     K16V03V  C2016 11 07.43995 08 59 34.95 +17 01 47.1          20.9 RoEV094926
     K16V03V  C2016 11 07.44607 08 59 36.75 +17 01 43.0          21.0 RoEV094926
     K16V03V  C2016 11 07.45289 08 59 38.77 +17 01 38.3          20.9 RoEV094926
     K16V03V  C2016 11 07.46920 08 59 43.61 +17 01 26.4                qEV094G96
     K16V03V  C2016 11 07.47291 08 59 44.64 +17 01 24.2                qEV094G96
     K16V03V  C2016 11 07.47478 08 59 45.21 +17 01 22.9          20.6 VqEV094G96
     K16V03V KC2016 11 07.52065 08 59 58.79 +17 00 51.5          20.9 RoEV094291
     K16V03V KC2016 11 07.52169 08 59 59.08 +17 00 50.7          20.7 RoEV094291
     K16V03V KC2016 11 07.52272 08 59 59.40 +17 00 50.0          20.9 RoEV094291
     K16V03V  C2016 11 09.51460 09 09 56.68 +16 36 52.2          20.7 VqEV094G96
     K16V03V  C2016 11 09.51596 09 09 57.06 +16 36 50.6          21.2 VqEV094G96
     K16V03V  C2016 11 09.51734 09 09 57.53 +16 36 49.9          21.3 VqEV094G96
     K16V03V  C2016 11 09.51923 09 09 58.09 +16 36 47.9          21.2 VqEV094G96
     K16V03V  C2016 11 10.51297 09 14 55.30 +16 24 18.9          20.9 RoEV094926
     K16V03V  C2016 11 10.52032 09 14 57.47 +16 24 13.0          20.9 RoEV094926
     K16V03V  C2016 11 10.52932 09 15 00.11 +16 24 06.8          21.4 RoEV094926
 
Observer details:
291 LPL/Spacewatch II.  Observer A. F. Tubbiolo.  1.8-m f/2.7 reflector + CCD.
926 Tenagra II Observatory.  Observers M. Schwartz, P. R. Holvorcem.  Measurer
    M. Schwartz.  0.81-m f/7 Ritchey-Chretien + CCD.
G96 Mt. Lemmon Survey.  Observers R. A. Kowalski, R. G. Matheny.  Measurers
    E. J. Christensen, D. C. Fuls, A. R. Gibbs, A. D. Grauer, J. A. Johnson,
    R. A. Kowalski, S. M. Larson, G. J. Leonard, R. G. Matheny, R. L. Seaman,
    F. C. Shelly.  1.5-m reflector + 10K CCD.
 
Orbital elements:
2016 VV3                                                 Earth MOID = 0.1547 AU
Epoch 2016 July 31.0 TT = JDT 2457600.5                 MPC
M 334.97582              (2000.0)            P               Q
n   0.19453610     Peri.   29.01143     -0.26737415     -0.96023790
a   2.9498680      Node    76.59249     +0.86738223     -0.27615520
e   0.6155772      Incl.    4.73741     +0.41971315     -0.04100581
P   5.07           H   19.7           G   0.15           U   7
Residuals in seconds of arc
161106 G96  0.1-  0.2+    161107 926  0.5+  0.0     161109 G96  0.0   0.3+
161106 G96  0.6+  0.0     161107 926  0.5+  0.0     161109 G96  0.2-  0.3-
161106 G96  0.3+  0.1-    161107 G96  0.8+  0.5-    161109 G96  0.7+  0.0
161106 G96  0.6+  0.4+    161107 G96  0.2-  0.2-    161109 G96  0.7+  0.6-
161106 G96  0.3+  0.1+    161107 G96  0.1+  0.2-    161110 926  0.2+  0.1+
161106 G96  0.1+  0.2+    161107 291  0.4+  0.0     161110 926  0.4+  0.2-
161106 G96  0.6+  0.3-    161107 291  0.2+  0.1-    161110 926  0.4+  0.5+
161107 926  0.6+  0.1-    161107 291  0.4+  0.0

Ephemeris:
2016 VV3                 a,e,i = 2.95, 0.62, 5                   q = 1.1340
Date    TT    R. A. (2000) Decl.     Delta      r     Elong.  Phase     V
2016 10 11    06 47 45.8 +19 43 45   0.7756  1.3329    96.6    48.1    21.6
...
2016 10 26    07 57 40.9 +18 54 33   0.6714  1.2477    95.1    52.5    21.2
...
2016 11 03    08 37 20.2 +17 49 35   0.6328  1.2101    93.7    54.9    21.1
...
2016 11 09    09 07 22.1 +16 43 16   0.6114  1.1862    92.5    56.5    21.0
2016 11 10    09 12 21.5 +16 30 53   0.6085  1.1826    92.3    56.8    21.0
2016 11 11    09 17 20.2 +16 18 08   0.6057  1.1792    92.1    57.0    21.0
...
2016 11 17    09 46 52.2 +14 54 59   0.5925  1.1608    90.9    58.4    21.0
...
2016 11 25    10 24 44.6 +12 50 55   0.5831  1.1435    89.7    59.7    21.0
...
2016 12 10    11 28 26.1 +08 47 34   0.5840  1.1348    88.8    60.2    21.0

A. U. Tomatic                (C) Copyright 2016 MPC           M.P.E.C. 2016-V94




More information about the Iaude mailing list